Fort Nelson, British Columbia

10:00 AM PDT on April 25, 2017 (GMT -0700)
Fort Nelson

Weather History for CYYE - November, 2012

Change the Weather History Date:

Friday, November 16, 2012

  Actual Average Record
Temperature  
Mean Temperature 0 °F -  
Max Temperature 4 °F 9 °F 33 °F (2000)
Min Temperature -3 °F -6 °F -5 °F (2014)
Degree Days  
Heating Degree Days 64    
Moisture  
Dew Point -4 °F    
Average Humidity 77    
Maximum Humidity 85    
Minimum Humidity 64    
Precipitation  
Precipitation 0.04 in 0.03 in - ()
Sea Level Pressure  
Sea Level Pressure 30.08 in    
Wind  
Wind Speed 2 mph ()    
Max Wind Speed 7 mph    
Max Gust Speed -    
Visibility 7.6 miles    
Events Snow    
Averages and records for this station are not official NWS values.
T = Trace of Precipitation, MM = Missing Value Source: Averaged Metar Reports

Daily Weather History Graph

Daily Weather History Graph

Search for Another Location

Airport or City:

Trip Planner

Search our weather history database for the weather conditions in past years. The results will help you decide how hot, cold, wet, or windy it might be!

Date:

Astronomy

Nov. 16, 2012 Rise Set
Actual Time 8:05 AM PST 3:44 PM PST
Civil Twilight 7:18 AM PST 4:31 PM PST
Nautical Twilight 6:27 AM PST 5:21 PM PST
Astronomical Twilight 5:40 AM PST 6:09 PM PST
Moon 11:17 AM PST (11/16) 6:40 PM PST (11/16)
Length of Visible Light 9h 13m
Length of Day
7h 39m
Waxing Crescent, 12% of the Moon is Illuminated
Nov 16
Waxing Crescent
Nov 20
First Quarter
Nov 28
Full
Dec 6
Last Quarter
Dec 13
New

Hourly Weather History & Observations

Time (PST) Temp. Windchill Dew Point Humidity Pressure Visibility Wind Dir Wind Speed Gust Speed Precip Events Conditions
12:00 AM -2.2 °F -10.4 °F -5.8 °F 85% 30.09 in 15.0 mi SW 3.5 mph - N/A Snow Light Snow
1:00 AM -2.2 °F - -7.6 °F 78% 30.09 in 15.0 mi Calm Calm - N/A Snow Light Snow
2:00 AM -2.2 °F - -7.6 °F 78% 30.09 in 15.0 mi Calm Calm - N/A Snow Light Snow
3:00 AM -2.2 °F - -7.6 °F 78% 30.08 in 15.0 mi Calm Calm - N/A Snow Light Snow
4:00 AM -2 °F - -6 °F 73% 30.08 in 15 mi Calm Calm - - Snow Light Snow
4:00 AM -2.2 °F - -5.8 °F 85% 30.08 in 15.0 mi Calm Calm - N/A Snow Light Snow
4:45 AM -2.2 °F - -7.6 °F 78% 30.07 in 15.0 mi Calm Calm - N/A   Overcast
5:00 AM -2.2 °F - -7.6 °F 78% 30.08 in 15.0 mi Calm Calm - N/A   Overcast
6:00 AM -0.4 °F - -5.8 °F 78% 30.07 in 15.0 mi Calm Calm - N/A   Overcast
7:00 AM -0.4 °F - -5.8 °F 78% 30.07 in 15.0 mi Calm Calm - N/A Snow Light Snow
8:00 AM -0.4 °F - -5.8 °F 78% 30.08 in 3.0 mi Calm Calm - N/A Snow Light Snow
9:00 AM 1.4 °F -6.2 °F -4.0 °F 78% 30.08 in 10.0 mi WNW 3.5 mph - N/A Snow Light Snow
10:00 AM 2 °F - -4 °F 64% 30.09 in 12 mi WNW 3.5 mph - - Snow Light Snow
10:00 AM 1.4 °F -6.2 °F -4.0 °F 78% 30.09 in 12.0 mi NW 3.5 mph - N/A Snow Light Snow
11:00 AM 3.2 °F -4.2 °F -4.0 °F 72% 30.08 in 5.0 mi West 3.5 mph - N/A Snow Light Snow
12:00 PM 3.2 °F -4.2 °F -2.2 °F 78% 30.08 in 3.0 mi NW 3.5 mph - N/A Snow Light Snow
1:00 PM 3.2 °F -7.8 °F -2.2 °F 78% 30.06 in 10.0 mi WNW 5.8 mph - N/A Snow Light Snow
1:48 PM 3.2 °F -6.2 °F -2.2 °F 78% 30.07 in 2.0 mi WNW 4.6 mph - N/A Snow Light Snow
2:00 PM 3.2 °F -7.8 °F -2.2 °F 78% 30.06 in 2.0 mi NW 5.8 mph - N/A Snow Light Snow
2:32 PM 3.2 °F -7.8 °F -2.2 °F 78% 30.06 in 1.0 mi NW 5.8 mph - N/A Snow Light Snow
3:00 PM 3.2 °F -7.8 °F -2.2 °F 78% 30.07 in 2.0 mi WNW 5.8 mph - N/A Snow Light Snow
4:00 PM 3 °F - -2 °F 69% 30.07 in 2 mi WNW 5.8 mph - - Snow Light Snow
4:00 PM 3.2 °F -7.8 °F -2.2 °F 78% 30.07 in 2.0 mi WNW 5.8 mph - N/A Snow Light Snow
5:00 PM 3.2 °F -9.1 °F -2.2 °F 78% 30.08 in 2.0 mi WNW 6.9 mph - N/A Snow Light Snow
6:00 PM 3.2 °F -7.8 °F -2.2 °F 78% 30.07 in 2.0 mi WNW 5.8 mph - N/A Snow Light Snow
7:00 PM 3.2 °F -9.1 °F -4.0 °F 72% 30.08 in 2.0 mi WNW 6.9 mph - N/A Snow Light Snow
8:00 PM 3.2 °F -9.1 °F -2.2 °F 78% 30.08 in 3.0 mi WNW 6.9 mph - N/A Snow Light Snow
9:00 PM 3.2 °F -7.8 °F -2.2 °F 78% 30.09 in 3.0 mi WNW 5.8 mph - N/A Snow Light Snow
10:00 PM 3 °F - -3 °F 67% 30.09 in 3 mi NW 5.8 mph - - Snow Light Snow
10:00 PM 3.2 °F -9.1 °F -2.2 °F 78% 30.09 in 3.0 mi NW 6.9 mph - N/A Snow Light Snow
11:00 PM 3.2 °F -9.1 °F -4.0 °F 72% 30.10 in 3.0 mi NW 6.9 mph - N/A Snow Light Snow